Time,TemperatureF,DewpointF,PressureIn,WindDirection,WindDirectionDegrees,WindSpeedMPH,WindSpeedGustMPH,Humidity,HourlyPrecipIn,Conditions,Clouds,dailyrainin,SoftwareType,DateUTC
2013-04-14 00:03:00,67.0,66.0,29.96,SW,218,1.0,2.0,96,-99.99,,,-99.99,,2013-04-14 04:03:00,
2013-04-14 00:13:00,66.0,65.0,29.96,SE,126,1.0,1.0,96,-99.99,,,-99.99,,2013-04-14 04:13:00,
2013-04-14 00:23:00,66.0,65.0,29.96,SE,126,1.0,1.0,96,-99.99,,,-99.99,,2013-04-14 04:23:00,
2013-04-14 00:33:00,66.0,65.0,29.96,SSE,148,1.0,2.0,96,-99.99,,,-99.99,,2013-04-14 04:33:00,
2013-04-14 00:43:00,66.0,65.0,29.96,SSE,148,1.0,2.0,96,-99.99,,,-99.99,,2013-04-14 04:43:00,
2013-04-14 00:53:00,66.0,65.0,29.97,East,95,1.0,2.0,96,-99.99,,,-99.99,,2013-04-14 04:53:00,
2013-04-14 01:03:00,66.0,65.0,29.97,East,95,1.0,2.0,96,-99.99,,,-99.99,,2013-04-14 05:03:00,
2013-04-14 01:12:00,65.0,64.0,29.96,East,92,1.0,3.0,96,-99.99,,,-99.99,,2013-04-14 05:12:00,
2013-04-14 01:23:00,65.0,64.0,29.96,East,92,1.0,3.0,96,-99.99,,,-99.99,,2013-04-14 05:23:00,
2013-04-14 01:32:00,65.0,64.0,29.96,SSE,167,1.0,2.0,97,-99.99,,,-99.99,,2013-04-14 05:32:00,
2013-04-14 01:42:00,65.0,64.0,29.96,SSE,167,1.0,2.0,97,-99.99,,,-99.99,,2013-04-14 05:42:00,
2013-04-14 01:53:00,65.0,64.0,29.96,SW,234,1.0,2.0,97,-99.99,,,-99.99,,2013-04-14 05:53:00,
2013-04-14 02:02:00,65.0,64.0,29.96,SW,234,1.0,2.0,97,-99.99,,,-99.99,,2013-04-14 06:02:00,
2013-04-14 02:12:00,65.0,64.0,29.96,NW,326,1.0,2.0,97,-99.99,,,-99.99,,2013-04-14 06:12:00,
2013-04-14 02:22:00,65.0,64.0,29.96,NW,326,1.0,2.0,97,-99.99,,,-99.99,,2013-04-14 06:22:00,
2013-04-14 02:32:00,65.0,65.0,29.96,ESE,114,2.0,2.0,97,-99.99,,,-99.99,,2013-04-14 06:32:00,
2013-04-14 02:42:00,65.0,65.0,29.96,ESE,114,2.0,2.0,97,-99.99,,,-99.99,,2013-04-14 06:42:00,
2013-04-14 02:53:00,64.0,64.0,29.95,ENE,57,1.0,2.0,97,-99.99,,,-99.99,,2013-04-14 06:53:00,
2013-04-14 03:03:00,64.0,64.0,29.95,ENE,57,1.0,2.0,97,-99.99,,,-99.99,,2013-04-14 07:03:00,
2013-04-14 03:12:00,64.0,63.0,29.95,WNW,294,1.0,2.0,97,-99.99,,,-99.99,,2013-04-14 07:12:00,
2013-04-14 03:22:00,64.0,63.0,29.95,WNW,294,1.0,2.0,97,-99.99,,,-99.99,,2013-04-14 07:22:00,
2013-04-14 03:33:00,64.0,64.0,29.95,NE,48,2.0,4.0,97,-99.99,,,-99.99,,2013-04-14 07:33:00,
2013-04-14 03:42:00,64.0,64.0,29.95,NE,48,2.0,4.0,97,-99.99,,,-99.99,,2013-04-14 07:42:00,
2013-04-14 03:52:00,64.0,63.0,29.94,East,100,1.0,2.0,97,-99.99,,,-99.99,,2013-04-14 07:52:00,
2013-04-14 04:03:00,64.0,63.0,29.94,East,100,1.0,2.0,97,-99.99,,,-99.99,,2013-04-14 08:03:00,
2013-04-14 04:13:00,64.0,63.0,29.94,SE,141,0.0,1.0,97,-99.99,,,-99.99,,2013-04-14 08:13:00,
2013-04-14 04:23:00,64.0,63.0,29.94,SE,141,0.0,1.0,97,-99.99,,,-99.99,,2013-04-14 08:23:00,
2013-04-14 04:32:00,63.0,63.0,29.94,SSE,154,0.0,1.0,97,-99.99,,,-99.99,,2013-04-14 08:32:00,
2013-04-14 04:42:00,63.0,63.0,29.94,SSE,154,0.0,1.0,97,-99.99,,,-99.99,,2013-04-14 08:42:00,
2013-04-14 04:52:00,63.0,63.0,29.94,SSW,195,1.0,1.0,97,-99.99,,,-99.99,,2013-04-14 08:52:00,
2013-04-14 05:03:00,63.0,63.0,29.94,SSW,195,1.0,1.0,97,-99.99,,,-99.99,,2013-04-14 09:03:00,
2013-04-14 05:12:00,63.0,62.0,29.94,South,184,1.0,1.0,97,-99.99,,,-99.99,,2013-04-14 09:12:00,
2013-04-14 05:22:00,63.0,62.0,29.94,South,184,1.0,1.0,97,-99.99,,,-99.99,,2013-04-14 09:22:00,
2013-04-14 05:33:00,63.0,62.0,29.94,ENE,71,1.0,2.0,98,-99.99,,,-99.99,,2013-04-14 09:33:00,
2013-04-14 05:43:00,63.0,62.0,29.94,ENE,71,1.0,2.0,98,-99.99,,,-99.99,,2013-04-14 09:43:00,
2013-04-14 05:54:00,62.0,62.0,29.93,East,95,1.0,2.0,98,-99.99,,,-99.99,,2013-04-14 09:54:00,
2013-04-14 06:03:00,62.0,62.0,29.93,East,95,1.0,2.0,98,-99.99,,,-99.99,,2013-04-14 10:03:00,
2013-04-14 06:13:00,62.0,62.0,29.93,East,87,1.0,3.0,98,-99.99,,,-99.99,,2013-04-14 10:13:00,
2013-04-14 06:23:00,62.0,62.0,29.93,East,87,1.0,3.0,98,-99.99,,,-99.99,,2013-04-14 10:23:00,
2013-04-14 06:33:00,62.0,62.0,29.93,ESE,114,2.0,4.0,98,-99.99,,,-99.99,,2013-04-14 10:33:00,
2013-04-14 06:42:00,62.0,62.0,29.93,ESE,114,2.0,4.0,98,-99.99,,,-99.99,,2013-04-14 10:42:00,
2013-04-14 06:53:00,63.0,62.0,29.93,SE,129,3.0,4.0,98,-99.99,,,-99.99,,2013-04-14 10:53:00,
2013-04-14 07:03:00,63.0,62.0,29.93,SE,129,3.0,4.0,98,-99.99,,,-99.99,,2013-04-14 11:03:00,
2013-04-14 07:13:00,63.0,63.0,29.93,ESE,110,2.0,4.0,98,-99.99,,,-99.99,,2013-04-14 11:13:00,
2013-04-14 07:23:00,63.0,63.0,29.93,ESE,110,2.0,4.0,98,-99.99,,,-99.99,,2013-04-14 11:23:00,
2013-04-14 07:32:00,66.0,65.0,29.93,ESE,121,3.0,6.0,98,-99.99,,,-99.99,,2013-04-14 11:32:00,
2013-04-14 07:42:00,66.0,65.0,29.93,ESE,121,3.0,6.0,98,-99.99,,,-99.99,,2013-04-14 11:42:00,
2013-04-14 07:53:00,67.0,67.0,29.93,SE,124,2.0,5.0,98,-99.99,,,-99.99,,2013-04-14 11:53:00,
2013-04-14 08:02:00,67.0,67.0,29.93,SE,124,2.0,5.0,98,-99.99,,,-99.99,,2013-04-14 12:02:00,
2013-04-14 08:12:00,68.0,67.0,29.94,SE,126,3.0,5.0,98,-99.99,,,-99.99,,2013-04-14 12:12:00,
2013-04-14 08:22:00,68.0,67.0,29.94,SE,126,3.0,5.0,98,-99.99,,,-99.99,,2013-04-14 12:22:00,
2013-04-14 08:32:00,70.0,69.0,29.95,ESE,121,3.0,5.0,98,-99.99,,,-99.99,,2013-04-14 12:32:00,
2013-04-14 08:42:00,70.0,69.0,29.95,ESE,121,3.0,5.0,98,-99.99,,,-99.99,,2013-04-14 12:42:00,
2013-04-14 08:52:00,71.0,70.0,29.95,ESE,117,3.0,5.0,98,-99.99,,,-99.99,,2013-04-14 12:52:00,
2013-04-14 09:02:00,71.0,70.0,29.95,ESE,117,3.0,5.0,98,-99.99,,,-99.99,,2013-04-14 13:02:00,
2013-04-14 09:12:00,72.0,71.0,29.96,SE,141,4.0,7.0,98,-99.99,,,-99.99,,2013-04-14 13:12:00,
2013-04-14 09:23:00,72.0,71.0,29.96,SE,141,4.0,7.0,98,-99.99,,,-99.99,,2013-04-14 13:23:00,
2013-04-14 09:33:00,74.0,73.0,29.96,SSE,152,7.0,12.0,97,-99.99,,,-99.99,,2013-04-14 13:33:00,
2013-04-14 09:42:00,74.0,73.0,29.96,SSE,152,7.0,12.0,97,-99.99,,,-99.99,,2013-04-14 13:42:00,
2013-04-14 09:52:00,76.0,74.0,29.95,SSE,151,8.0,12.0,93,-99.99,,,-99.99,,2013-04-14 13:52:00,
2013-04-14 10:02:00,76.0,74.0,29.95,SSE,151,8.0,12.0,93,-99.99,,,-99.99,,2013-04-14 14:02:00,
2013-04-14 10:12:00,78.0,74.0,29.96,SSE,160,8.0,14.0,85,-99.99,,,-99.99,,2013-04-14 14:12:00,
2013-04-14 10:22:00,78.0,74.0,29.96,SSE,160,8.0,14.0,85,-99.99,,,-99.99,,2013-04-14 14:22:00,
2013-04-14 10:32:00,82.0,74.0,29.96,SSE,158,8.0,16.0,76,-99.99,,,-99.99,,2013-04-14 14:32:00,
2013-04-14 10:42:00,82.0,74.0,29.96,SSE,158,8.0,16.0,76,-99.99,,,-99.99,,2013-04-14 14:42:00,
2013-04-14 10:53:00,81.0,73.0,29.96,SSE,159,9.0,14.0,75,-99.99,,,-99.99,,2013-04-14 14:53:00,
2013-04-14 11:03:00,81.0,73.0,29.96,SSE,159,9.0,14.0,75,-99.99,,,-99.99,,2013-04-14 15:03:00,
2013-04-14 11:12:00,81.0,72.0,29.96,South,174,8.0,14.0,73,-99.99,,,-99.99,,2013-04-14 15:12:00,
2013-04-14 11:23:00,81.0,72.0,29.96,South,174,8.0,14.0,73,-99.99,,,-99.99,,2013-04-14 15:23:00,
2013-04-14 11:33:00,83.0,72.0,29.96,SSE,163,10.0,18.0,68,-99.99,,,-99.99,,2013-04-14 15:33:00,
2013-04-14 11:43:00,83.0,72.0,29.96,SSE,163,10.0,18.0,68,-99.99,,,-99.99,,2013-04-14 15:43:00,
2013-04-14 11:53:00,84.0,71.0,29.96,South,176,10.0,15.0,65,-99.99,,,-99.99,,2013-04-14 15:53:00,
2013-04-14 12:05:00,84.0,71.0,29.96,South,176,10.0,15.0,65,-99.99,,,-99.99,,2013-04-14 16:05:00,
2013-04-14 12:13:00,84.0,72.0,29.96,South,176,10.0,16.0,65,-99.99,,,-99.99,,2013-04-14 16:13:00,
2013-04-14 12:23:00,84.0,72.0,29.96,South,176,10.0,16.0,65,-99.99,,,-99.99,,2013-04-14 16:23:00,
2013-04-14 12:33:00,85.0,72.0,29.96,SSE,163,8.0,16.0,65,-99.99,,,-99.99,,2013-04-14 16:33:00,
2013-04-14 12:43:00,85.0,72.0,29.96,SSE,163,8.0,16.0,65,-99.99,,,-99.99,,2013-04-14 16:43:00,
2013-04-14 12:53:00,85.0,73.0,29.96,South,170,7.0,12.0,65,-99.99,,,-99.99,,2013-04-14 16:53:00,
2013-04-14 13:02:00,85.0,73.0,29.96,South,170,7.0,12.0,65,-99.99,,,-99.99,,2013-04-14 17:02:00,
2013-04-14 13:13:00,85.0,73.0,29.95,South,180,7.0,14.0,65,-99.99,,,-99.99,,2013-04-14 17:13:00,
2013-04-14 13:22:00,85.0,73.0,29.95,South,180,7.0,14.0,65,-99.99,,,-99.99,,2013-04-14 17:22:00,
2013-04-14 13:33:00,86.0,73.0,29.94,SSW,197,10.0,18.0,64,-99.99,,,-99.99,,2013-04-14 17:33:00,
2013-04-14 13:42:00,86.0,73.0,29.94,SSW,197,10.0,18.0,64,-99.99,,,-99.99,,2013-04-14 17:42:00,
2013-04-14 13:53:00,85.0,73.0,29.93,South,182,9.0,17.0,65,-99.99,,,-99.99,,2013-04-14 17:53:00,
2013-04-14 14:03:00,85.0,73.0,29.93,South,182,9.0,17.0,65,-99.99,,,-99.99,,2013-04-14 18:03:00,
2013-04-14 14:12:00,87.0,73.0,29.93,South,190,10.0,17.0,62,-99.99,,,-99.99,,2013-04-14 18:12:00,
2013-04-14 14:22:00,87.0,73.0,29.93,South,190,10.0,17.0,62,-99.99,,,-99.99,,2013-04-14 18:22:00,
2013-04-14 14:33:00,87.0,73.0,29.92,South,182,10.0,18.0,62,-99.99,,,-99.99,,2013-04-14 18:33:00,
2013-04-14 14:43:00,87.0,73.0,29.92,South,182,10.0,18.0,62,-99.99,,,-99.99,,2013-04-14 18:43:00,
2013-04-14 14:54:00,87.0,73.0,29.92,SSW,194,10.0,17.0,63,-99.99,,,-99.99,,2013-04-14 18:54:00,
2013-04-14 15:04:00,87.0,73.0,29.92,SSW,194,10.0,17.0,63,-99.99,,,-99.99,,2013-04-14 19:04:00,
2013-04-14 15:12:00,88.0,73.0,29.91,South,185,10.0,17.0,61,-99.99,,,-99.99,,2013-04-14 19:12:00,
2013-04-14 15:22:00,88.0,73.0,29.91,South,185,10.0,17.0,61,-99.99,,,-99.99,,2013-04-14 19:22:00,
2013-04-14 15:32:00,88.0,72.0,29.90,South,181,10.0,20.0,59,-99.99,,,-99.99,,2013-04-14 19:32:00,
2013-04-14 15:43:00,88.0,72.0,29.90,South,181,10.0,20.0,59,-99.99,,,-99.99,,2013-04-14 19:43:00,
2013-04-14 15:53:00,88.0,72.0,29.90,South,181,11.0,21.0,59,-99.99,,,-99.99,,2013-04-14 19:53:00,
2013-04-14 16:03:00,88.0,72.0,29.90,South,181,11.0,21.0,59,-99.99,,,-99.99,,2013-04-14 20:03:00,
2013-04-14 16:13:00,88.0,72.0,29.89,South,174,11.0,19.0,59,-99.99,,,-99.99,,2013-04-14 20:13:00,
2013-04-14 16:22:00,88.0,72.0,29.89,South,174,11.0,19.0,59,-99.99,,,-99.99,,2013-04-14 20:22:00,
2013-04-14 16:33:00,88.0,72.0,29.88,South,173,11.0,19.0,58,-99.99,,,-99.99,,2013-04-14 20:33:00,
2013-04-14 16:43:00,88.0,72.0,29.88,South,173,11.0,19.0,58,-99.99,,,-99.99,,2013-04-14 20:43:00,
2013-04-14 16:53:00,87.0,71.0,29.87,South,188,11.0,19.0,58,-99.99,,,-99.99,,2013-04-14 20:53:00,
2013-04-14 17:02:00,87.0,71.0,29.87,South,188,11.0,19.0,58,-99.99,,,-99.99,,2013-04-14 21:02:00,
2013-04-14 17:13:00,88.0,71.0,29.87,South,190,9.0,16.0,57,-99.99,,,-99.99,,2013-04-14 21:13:00,
2013-04-14 17:23:00,88.0,71.0,29.87,South,190,9.0,16.0,57,-99.99,,,-99.99,,2013-04-14 21:23:00,
2013-04-14 17:33:00,87.0,71.0,29.87,South,183,11.0,19.0,58,-99.99,,,-99.99,,2013-04-14 21:33:00,
2013-04-14 17:43:00,87.0,71.0,29.87,South,183,11.0,19.0,58,-99.99,,,-99.99,,2013-04-14 21:43:00,
2013-04-14 17:53:00,86.0,71.0,29.87,South,182,11.0,18.0,60,-99.99,,,-99.99,,2013-04-14 21:53:00,
2013-04-14 18:03:00,86.0,71.0,29.87,South,182,11.0,18.0,60,-99.99,,,-99.99,,2013-04-14 22:03:00,
2013-04-14 18:13:00,86.0,71.0,29.87,South,191,11.0,18.0,60,-99.99,,,-99.99,,2013-04-14 22:13:00,
2013-04-14 18:23:00,86.0,71.0,29.87,South,191,11.0,18.0,60,-99.99,,,-99.99,,2013-04-14 22:23:00,
2013-04-14 18:33:00,85.0,71.0,29.88,South,187,9.0,17.0,62,-99.99,,,-99.99,,2013-04-14 22:33:00,
2013-04-14 18:44:00,85.0,71.0,29.88,South,187,9.0,17.0,62,-99.99,,,-99.99,,2013-04-14 22:44:00,
2013-04-14 18:53:00,84.0,71.0,29.89,South,190,8.0,14.0,63,-99.99,,,-99.99,,2013-04-14 22:53:00,
2013-04-14 19:02:00,84.0,71.0,29.89,South,190,8.0,14.0,63,-99.99,,,-99.99,,2013-04-14 23:02:00,
2013-04-14 19:12:00,84.0,70.0,29.89,SSW,193,8.0,16.0,63,-99.99,,,-99.99,,2013-04-14 23:12:00,
2013-04-14 19:23:00,84.0,70.0,29.89,SSW,193,8.0,16.0,63,-99.99,,,-99.99,,2013-04-14 23:23:00,
2013-04-14 19:33:00,83.0,71.0,29.90,South,183,7.0,14.0,67,-99.99,,,-99.99,,2013-04-14 23:33:00,
2013-04-14 19:43:00,83.0,71.0,29.90,South,183,7.0,14.0,67,-99.99,,,-99.99,,2013-04-14 23:43:00,
2013-04-14 19:53:00,81.0,71.0,29.90,South,187,7.0,13.0,71,-99.99,,,-99.99,,2013-04-14 23:53:00,
2013-04-14 20:02:00,81.0,71.0,29.90,South,187,7.0,13.0,71,-99.99,,,-99.99,,2013-04-15 00:02:00,
2013-04-14 20:13:00,80.0,72.0,29.90,South,188,6.0,10.0,74,-99.99,,,-99.99,,2013-04-15 00:13:00,
2013-04-14 20:23:00,80.0,72.0,29.90,South,188,6.0,10.0,74,-99.99,,,-99.99,,2013-04-15 00:23:00,
2013-04-14 20:33:00,78.0,72.0,29.91,SSW,205,4.0,8.0,79,-99.99,,,-99.99,,2013-04-15 00:33:00,
2013-04-14 20:42:00,78.0,72.0,29.91,SSW,205,4.0,8.0,79,-99.99,,,-99.99,,2013-04-15 00:42:00,
2013-04-14 20:53:00,78.0,72.0,29.91,SSW,208,4.0,7.0,82,-99.99,,,-99.99,,2013-04-15 00:53:00,
2013-04-14 21:03:00,78.0,72.0,29.91,SSW,208,4.0,7.0,82,-99.99,,,-99.99,,2013-04-15 01:03:00,
2013-04-14 21:13:00,77.0,72.0,29.91,SSW,208,4.0,6.0,84,-99.99,,,-99.99,,2013-04-15 01:13:00,
2013-04-14 21:23:00,77.0,72.0,29.91,SSW,208,4.0,6.0,84,-99.99,,,-99.99,,2013-04-15 01:23:00,
2013-04-14 21:33:00,75.0,71.0,29.92,SSW,196,3.0,5.0,87,-99.99,,,-99.99,,2013-04-15 01:33:00,
2013-04-14 21:42:00,75.0,71.0,29.92,SSW,196,3.0,5.0,87,-99.99,,,-99.99,,2013-04-15 01:42:00,
2013-04-14 21:52:00,74.0,71.0,29.93,SSW,213,2.0,4.0,90,-99.99,,,-99.99,,2013-04-15 01:52:00,
2013-04-14 22:03:00,74.0,71.0,29.93,SSW,213,2.0,4.0,90,-99.99,,,-99.99,,2013-04-15 02:03:00,
2013-04-14 22:12:00,72.0,70.0,29.94,WSW,255,2.0,3.0,91,-99.99,,,-99.99,,2013-04-15 02:12:00,
2013-04-14 22:22:00,72.0,70.0,29.94,WSW,255,2.0,3.0,91,-99.99,,,-99.99,,2013-04-15 02:22:00,
2013-04-14 22:32:00,70.0,69.0,29.95,South,191,1.0,2.0,94,-99.99,,,-99.99,,2013-04-15 02:32:00,
2013-04-14 22:42:00,70.0,69.0,29.95,South,191,1.0,2.0,94,-99.99,,,-99.99,,2013-04-15 02:42:00,
2013-04-14 22:53:00,70.0,68.0,29.96,SE,129,2.0,2.0,95,-99.99,,,-99.99,,2013-04-15 02:53:00,
2013-04-14 23:03:00,70.0,68.0,29.96,SE,129,2.0,2.0,95,-99.99,,,-99.99,,2013-04-15 03:03:00,
2013-04-14 23:12:00,69.0,67.0,29.96,SSE,150,2.0,3.0,95,-99.99,,,-99.99,,2013-04-15 03:12:00,
2013-04-14 23:22:00,69.0,67.0,29.96,SSE,150,2.0,3.0,95,-99.99,,,-99.99,,2013-04-15 03:22:00,
2013-04-14 23:33:00,68.0,67.0,29.96,ESE,107,1.0,2.0,96,-99.99,,,-99.99,,2013-04-15 03:33:00,
2013-04-14 23:43:00,68.0,67.0,29.96,ESE,107,1.0,2.0,96,-99.99,,,-99.99,,2013-04-15 03:43:00,
2013-04-14 23:55:00,68.0,67.0,29.97,East,84,1.0,2.0,96,-99.99,,,-99.99,,2013-04-15 03:55:00,